GEFSSGP_con_cape1000_282.txt.gz
Probability
52 48 55 81 74 39 0 3 0 3 3 0 0 0 0 0 3 13 10 10 19 26 32 42 58 48 45 48 48 42 42 42 32 35 42 32 35 35 42 42 39 32 35 39 39 35 39 39 35
39 39 52 65 42 10 0 3 3 3 0 0 0 0 0 0 3 6 10 16 16 13 32 39 42 42 39 39 39 39 39 39 35 29 35 32 32 32 32 32 32 32 32 39 35 42 35 35 32
39 23 42 58 13 3 0 6 3 3 0 0 0 0 0 0 3 6 13 13 19 23 32 35 52 45 35 39 39 29 35 39 29 29 39 32 29 32 26 23 23 32 32 35 35 35 35 32 26
29 42 35 23 0 3 3 3 3 0 0 0 0 0 0 3 3 6 10 13 19 23 35 35 48 42 39 35 39 42 45 48 32 35 39 32 32 35 26 29 26 29 29 29 32 35 32 32 29
29 39 16 10 0 3 0 3 3 3 0 0 0 0 6 10 6 6 6 16 19 26 35 32 45 45 39 42 39 42 35 35 35 32 39 39 35 26 26 26 26 29 29 29 29 29 29 29 26
35 29 6 3 0 3 0 3 3 3 3 0 0 3 13 13 6 10 13 19 13 16 23 29 48 45 39 39 39 39 32 26 26 39 39 35 29 26 23 26 26 23 26 23 16 19 19 16 23
29 19 3 0 3 0 0 0 0 3 3 0 0 3 16 19 19 13 10 16 13 13 26 23 23 32 48 45 42 39 35 29 26 26 29 29 32 26 26 23 19 19 19 16 13 10 13 10 10
26 19 3 0 0 0 0 0 0 3 3 0 0 6 13 16 19 13 13 10 6 6 16 23 23 23 23 29 48 42 29 29 32 35 32 32 39 29 29 26 16 10 13 16 13 10 16 16 16
10 16 3 3 0 0 0 0 0 3 0 0 6 10 16 13 13 13 13 13 10 6 13 13 19 26 26 16 23 42 42 39 32 32 42 45 13 10 10 10 16 13 10 10 16 19 13 19 23
10 13 3 3 3 0 0 0 0 0 0 3 10 10 13 10 13 10 13 13 10 10 13 3 13 13 19 16 16 26 19 16 10 6 13 13 10 6 3 13 26 23 13 10 16 23 26 13 3
3 0 0 0 0 0 0 0 0 0 0 0 6 13 13 10 10 13 13 10 6 6 6 10 10 10 13 16 16 16 23 23 13 10 13 13 13 10 10 10 10 10 13 6 13 13 3 0 0
3 0 0 0 3 0 0 0 0 0 0 0 6 10 13 13 13 16 10 6 3 3 10 10 10 10 6 13 16 19 19 16 13 6 6 6 10 10 13 10 13 13 10 0 3 3 0 0 0
0 0 3 3 0 0 0 0 3 0 0 3 3 6 10 13 13 16 10 10 3 3 6 6 6 6 6 13 13 6 13 10 13 16 3 6 10 10 6 6 6 6 6 3 3 3 0 0 0
0 0 3 3 0 0 0 0 0 0 0 0 3 3 10 10 13 10 6 6 0 0 3 3 3 0 0 6 10 13 10 6 10 6 0 3 3 6 10 3 3 0 0 0 0 0 3 3 0
0 0 0 0 0 0 0 0 0 0 0 0 3 6 6 6 10 10 6 3 3 3 3 3 3 3 3 0 6 6 10 3 3 3 0 0 3 3 3 3 0 0 0 0 0 0 0 3 3
0 0 0 0 0 0 0 0 0 0 0 3 3 6 6 6 6 6 0 0 0 3 6 3 6 3 3 6 3 3 6 6 6 10 3 0 0 0 3 3 0 0 0 3 0 0 3 3 3
0 0 0 0 0 0 0 0 0 0 0 3 3 3 3 6 6 3 3 3 3 3 6 3 6 3 3 10 6 10 6 6 6 10 6 3 3 3 3 6 0 3 0 3 0 0 0 0 0
0 0 0 0 0 0 0 0 0 0 0 3 3 0 0 6 6 3 6 3 3 3 3 6 10 6 0 6 10 10 6 10 6 3 3 3 3 3 3 6 3 0 3 0 0 0 0 0 0
0 0 0 0 0 0 0 0 0 0 0 0 3 3 6 6 6 3 10 13 10 6 6 10 10 13 13 13 13 10 10 6 6 3 3 3 3 3 3 3 6 6 0 3 3 0 6 3 0
0 0 0 0 0 0 0 0 0 0 0 0 0 0 3 3 3 3 3 6 6 6 6 10 10 10 13 16 10 10 10 3 3 3 3 0 0 0 0 0 3 0 3 3 6 0 0 0 0
0 0 0 0 0 0 0 0 0 0 0 0 0 0 0 3 6 6 6 6 6 3 6 6 6 6 13 13 3 3 3 3 0 3 3 0 0 0 0 0 0 0 0 3 3 3 0 0 0
0 0 0 0 0 0 0 0 0 0 0 0 0 0 0 3 3 6 10 10 10 6 3 0 10 10 10 10 10 3 3 6 3 3 0 0 0 0 0 0 0 0 0 3 3 3 3 0 0
0 0 0 0 0 0 0 0 0 0 0 0 0 0 0 0 3 10 13 13 6 6 6 6 6 10 6 10 10 6 3 3 0 0 0 0 0 0 0 0 0 0 3 3 3 3 3 0 0
0 0 0 0 0 0 0 0 0 0 0 0 0 0 0 0 0 6 10 13 13 16 13 6 3 6 6 10 10 10 6 3 3 3 3 0 0 0 0 0 0 0 0 3 3 3 6 6 0
0 0 0 0 0 0 0 0 0 0 0 0 0 0 0 0 0 6 10 10 16 16 10 3 6 10 6 6 6 10 10 6 3 3 3 3 3 3 3 3 0 0 0 0 3 6 6 6 3
0 0 0 0 0 0 0 0 0 0 0 0 0 0 0 0 3 3 10 10 13 10 10 0 6 6 6 3 3 3 6 0 0 0 0 0 0 0 0 0 3 3 3 3 3 3 3 6 6
0 0 0 0 0 0 0 0 0 0 3 3 0 0 3 6 10 10 6 6 10 16 10 6 0 6 3 3 6 3 3 0 0 0 0 0 0 0 0 0 0 0 3 3 3 3 3 6 6
0 0 0 0 0 0 0 0 0 3 3 3 0 10 10 6 6 10 6 6 6 10 13 3 3 3 0 3 3 3 3 0 0 0 0 0 0 0 0 0 0 0 0 0 3 3 3 3 3
0 0 0 0 0 0 0 0 0 0 3 3 6 6 6 6 6 10 6 10 10 3 3 0 0 0 0 3 3 3 3 3 0 0 0 0 0 0 0 0 0 0 0 0 0 3 3 3 3
0 0 0 0 0 0 0 0 0 0 3 3 3 6 6 6 6 10 10 6 6 0 0 0 0 0 0 0 0 3 3 0 0 0 0 0 0 0 0 0 0 0 0 0 0 0 0 0 0

GEFSSGP_con_cape1000_288.txt.gz
Probability
45 26 23 16 0 0 0 0 0 0 0 0 0 0 0 0 0 0 0 6 10 23 42 58 55 45 42 48 45 39 48 52 52 61 55 55 52 45 45 45 39 45 42 35 35 39 35 35 32
29 16 10 6 0 0 0 0 0 0 0 0 0 0 0 0 0 0 3 16 19 23 29 39 65 55 48 45 48 48 52 48 52 52 48 42 45 42 32 32 32 39 39 35 39 39 35 35 32
26 19 3 3 0 0 0 0 0 0 0 0 0 0 3 0 0 0 6 16 16 23 26 55 61 52 48 45 45 48 48 45 48 55 42 39 35 35 42 32 29 29 29 29 32 26 32 29 26
6 0 3 0 0 0 0 0 0 0 0 0 0 3 0 3 3 3 13 16 19 26 32 48 61 52 55 42 45 42 45 48 48 42 42 39 35 35 29 23 23 29 26 26 26 19 23 23 29
3 0 0 0 0 0 0 0 0 0 0 0 0 3 0 0 3 6 16 13 16 29 32 39 58 48 52 55 45 45 45 58 58 52 42 45 32 32 26 23 23 23 29 29 26 26 26 29 29
0 0 0 0 0 0 0 0 0 0 0 3 0 3 0 3 3 6 13 19 19 23 29 45 58 52 52 55 52 58 52 55 42 42 42 42 35 29 29 29 26 19 19 23 19 26 23 19 23
6 0 0 0 0 0 0 0 0 0 0 3 0 0 3 0 0 6 16 16 13 19 29 26 32 45 45 52 48 55 55 48 48 39 39 39 42 32 26 29 26 26 23 19 19 23 26 23 29
6 0 0 0 0 0 0 0 0 0 0 3 3 0 0 0 0 6 10 13 16 16 13 16 19 19 23 32 48 55 52 48 52 52 45 42 32 19 23 16 23 26 26 16 23 32 29 29 32
0 0 0 0 0 0 0 0 0 0 3 6 6 3 0 0 0 3 6 6 13 16 13 10 13 3 10 13 26 35 42 35 45 39 48 32 6 6 6 16 26 19 13 23 32 29 26 23 26
3 0 0 0 0 0 0 0 0 0 6 10 13 10 6 6 3 3 3 3 6 6 10 6 6 3 3 6 13 13 13 10 13 10 10 10 3 6 6 13 26 29 23 26 23 23 19 13 0
3 0 0 0 0 0 0 0 0 0 0 6 13 6 6 3 3 0 0 0 0 6 13 10 3 3 3 3 3 0 0 0 0 0 3 3 0 0 3 3 3 6 10 10 6 3 3 3 0
0 0 0 0 0 0 0 0 0 0 0 3 10 13 10 10 6 3 0 0 3 3 6 10 3 3 3 3 3 0 0 0 0 0 0 0 0 0 0 0 0 0 3 3 3 0 0 0 0
3 3 0 0 0 0 0 0 0 0 0 6 13 13 10 10 10 6 6 0 3 3 6 3 3 3 3 0 3 3 3 0 0 0 0 0 0 0 0 0 0 0 0 0 0 0 0 0 0
3 0 0 0 0 0 0 0 0 0 0 6 10 10 10 6 10 3 3 3 3 3 3 0 0 0 0 0 0 3 3 0 0 0 0 0 0 0 0 0 0 0 0 0 0 0 0 0 0
0 0 0 0 0 0 0 0 0 0 3 6 6 6 3 3 3 3 6 3 3 3 3 0 0 0 0 0 0 0 0 0 0 0 0 0 0 0 0 0 0 0 0 0 0 0 0 0 0
0 0 0 0 0 0 0 0 0 0 0 3 3 3 3 3 3 3 3 3 3 3 3 0 0 0 0 0 0 0 0 0 0 0 0 0 0 0 0 0 0 0 0 0 0 0 0 0 0
0 0 0 0 0 0 0 0 0 0 3 0 0 3 3 3 3 6 3 3 3 3 3 3 0 0 0 0 0 0 0 0 0 0 0 0 0 0 0 0 0 0 0 0 0 0 0 0 0
0 0 0 0 0 0 0 0 0 0 0 0 0 0 3 3 3 3 6 3 3 3 0 0 0 0 0 0 0 0 0 0 0 0 0 0 0 0 0 0 0 0 0 0 0 0 0 0 0
0 0 0 0 0 0 0 0 0 0 0 0 0 0 0 0 3 3 3 0 0 0 0 0 0 0 0 0 0 0 0 0 0 0 0 0 0 0 0 0 0 0 0 0 0 0 0 0 0
0 0 0 0 0 0 0 0 0 0 0 0 0 0 0 3 0 3 0 0 0 0 0 0 0 0 0 0 0 0 0 0 0 0 0 0 0 0 0 0 0 0 0 0 0 0 0 0 0
0 0 0 0 0 0 0 0 0 0 0 0 0 0 0 3 0 3 0 0 0 0 0 0 0 0 0 0 0 0 0 0 0 0 0 0 0 0 0 0 0 0 0 0 0 0 0 0 0
0 0 0 0 0 0 0 0 0 0 0 0 0 0 0 0 3 3 0 0 0 0 0 0 0 0 0 0 0 0 0 0 0 0 0 0 0 0 0 0 0 0 0 0 0 0 0 0 0
0 0 0 0 0 0 0 0 0 0 0 0 0 0 0 0 0 3 3 0 0 0 0 0 0 0 0 0 0 0 0 0 0 0 0 0 0 0 0 0 0 0 0 0 0 0 0 0 0
0 0 0 0 0 0 0 0 0 0 0 0 0 0 0 0 3 3 3 0 0 0 0 0 0 0 0 0 0 0 0 0 0 0 0 0 0 0 0 0 0 0 0 0 0 0 0 0 0
0 0 0 0 0 0 0 0 0 0 0 0 0 0 0 0 0 3 0 3 0 0 0 0 0 0 0 0 0 0 0 0 0 0 0 0 0 0 0 0 0 0 0 0 0 0 0 0 0
0 0 0 0 0 0 0 0 0 0 0 0 0 0 0 0 0 3 0 0 0 0 0 0 0 0 0 0 0 0 0 0 0 0 0 0 0 0 0 0 0 0 0 0 0 0 0 0 0
0 0 0 0 0 0 0 0 0 0 0 0 0 0 0 0 6 3 0 0 0 0 0 0 0 0 0 0 0 0 0 0 0 0 0 0 0 0 0 0 0 0 0 0 0 0 0 0 0
0 0 0 0 0 0 0 0 0 0 0 0 0 0 0 3 6 3 0 0 0 0 0 0 0 0 0 0 0 0 0 0 0 0 0 0 0 0 0 0 0 0 0 0 0 0 0 0 0
0 0 0 0 0 0 0 0 0 0 0 0 0 0 0 3 3 3 3 0 0 0 0 0 0 0 0 0 0 0 0 0 0 0 0 0 0 0 0 0 0 0 0 0 0 0 0 0 0
0 0 0 0 0 0 0 0 0 0 0 0 0 0 0 0 3 3 3 0 0 0 0 0 0 0 0 0 0 0 0 0 0 0 0 0 0 0 0 0 0 0 0 0 0 0 0 0 0

GEFSSGP_con_cape1000_294.txt.gz
Probability
48 19 6 0 0 0 0 0 0 0 0 0 0 0 0 0 0 0 0 0 0 3 23 39 42 35 35 35 35 32 42 52 52 52 48 45 32 32 39 35 35 35 39 39 35 39 42 42 48
19 3 3 0 0 0 0 0 0 0 0 0 0 0 0 0 0 0 0 6 3 19 26 29 42 42 39 39 35 45 45 48 45 48 48 39 42 32 39 35 32 32 35 32 32 32 42 39 45
13 0 0 0 0 0 0 0 0 0 0 0 0 0 0 0 0 0 0 10 13 19 26 26 52 42 45 35 35 45 45 45 42 45 45 42 35 32 32 29 29 32 32 32 29 32 35 32 32
0 0 0 0 0 0 0 0 0 0 0 0 0 0 0 0 0 0 6 10 13 16 23 32 55 45 45 42 32 45 42 39 39 42 39 32 35 32 29 32 32 26 32 32 29 39 32 29 29
0 0 0 0 0 0 0 0 0 3 0 0 0 0 0 0 0 6 13 13 13 16 19 39 45 52 45 45 45 42 45 39 32 29 32 29 32 32 29 26 26 26 26 26 26 29 32 35 32
0 0 0 0 0 0 0 0 0 0 0 0 0 0 0 0 3 13 16 13 10 16 23 35 45 48 39 42 45 39 32 42 35 35 39 32 35 29 32 32 26 23 23 23 19 32 32 35 32
0 0 0 0 0 0 0 0 0 0 3 0 0 0 0 0 0 10 13 6 13 16 19 16 19 19 48 52 45 39 52 55 39 35 29 29 35 35 35 35 35 32 29 32 29 29 39 35 35
0 0 0 0 0 0 0 0 0 0 3 0 0 0 0 0 0 6 6 0 10 13 10 10 13 13 16 19 42 48 39 35 29 26 19 23 19 16 16 19 29 29 29 32 29 32 35 42 35
0 0 0 0 0 0 0 0 0 0 6 6 0 0 0 0 0 3 0 0 3 0 3 3 3 3 6 10 16 23 26 26 26 13 23 6 6 6 6 6 19 26 26 26 23 26 29 26 23
0 0 0 0 0 0 0 0 0 3 6 3 3 0 0 3 6 6 0 0 0 3 6 3 0 0 3 6 6 6 6 6 10 6 6 0 0 0 6 3 10 16 23 19 19 13 6 3 3
3 0 0 0 0 0 0 0 0 0 0 0 0 6 6 6 6 3 3 0 0 3 6 3 0 0 0 0 0 0 0 0 0 0 0 0 0 0 0 0 0 3 6 3 3 3 3 3 0
3 3 0 0 0 0 0 0 0 0 0 0 0 6 3 3 6 3 0 0 0 3 3 0 0 0 0 0 0 0 0 0 0 0 0 0 0 0 0 0 0 0 0 0 0 0 0 0 0
0 0 0 0 0 0 0 0 0 0 3 6 6 10 3 3 3 0 0 0 3 3 3 0 0 0 0 0 0 0 0 0 0 0 0 0 0 0 0 0 0 0 0 0 0 0 0 0 0
0 0 0 0 0 0 0 0 0 0 6 6 6 10 3 3 3 3 0 3 3 3 0 0 0 0 0 0 0 0 0 0 0 0 0 0 0 0 0 0 0 0 0 0 0 0 0 0 0
0 0 0 0 0 0 0 0 0 0 6 6 6 3 6 3 3 3 0 3 3 0 0 0 0 0 0 0 0 0 0 0 0 0 0 0 0 0 0 0 0 0 0 0 0 0 0 0 0
0 0 0 0 0 0 0 0 0 0 3 3 3 3 6 3 6 3 0 3 3 0 0 0 0 0 0 0 0 0 0 0 0 0 0 0 0 0 0 0 0 0 0 0 0 0 0 0 0
0 0 0 0 0 0 0 0 0 0 0 3 3 0 3 0 0 0 0 3 3 0 0 0 0 0 0 0 0 0 0 0 0 0 0 0 0 0 0 0 0 0 0 0 0 0 0 0 0
0 0 0 0 0 0 0 0 0 0 0 0 0 0 0 0 0 0 0 0 3 0 0 0 0 0 0 0 0 0 0 0 0 0 0 0 0 0 0 0 0 0 0 0 0 0 0 0 0
0 0 0 0 0 0 0 0 0 0 0 0 0 0 0 0 0 0 0 0 0 0 0 0 0 0 0 0 0 0 0 0 0 0 0 0 0 0 0 0 0 0 0 0 0 0 0 0 0
0 0 0 0 0 0 0 0 0 0 0 0 0 0 0 0 0 0 0 0 0 0 0 0 0 0 0 0 0 0 0 0 0 0 0 0 0 0 0 0 0 0 0 0 0 0 0 0 0
0 0 0 0 0 0 0 0 0 0 0 0 0 0 0 0 0 0 0 0 0 0 0 0 0 0 0 0 0 0 0 0 0 0 0 0 0 0 0 0 0 0 0 0 0 0 0 0 0
0 0 0 0 0 0 0 0 0 0 0 0 0 0 0 0 0 0 0 3 3 0 0 0 0 0 0 0 0 0 0 0 0 0 0 0 0 0 0 0 0 0 0 0 0 0 0 0 0
0 0 0 0 0 0 0 0 0 0 0 0 0 0 0 0 0 0 3 3 3 3 0 0 0 0 0 0 0 0 0 0 0 0 0 0 0 0 0 0 0 0 0 0 0 0 0 0 0
0 0 0 0 0 0 0 0 0 0 0 0 0 0 0 0 0 0 0 3 3 3 0 0 0 0 0 0 0 0 0 0 0 0 0 0 0 0 0 0 0 0 0 0 0 0 0 0 0
0 0 0 0 0 0 0 0 0 0 0 0 0 0 0 0 0 0 0 3 3 3 0 0 0 0 0 0 0 0 0 0 0 0 0 0 0 0 0 0 0 0 0 0 0 0 0 0 0
0 0 0 0 0 0 0 0 0 0 0 0 0 0 0 0 0 0 0 3 3 3 0 0 0 0 0 0 0 0 0 0 0 0 0 0 0 0 0 0 0 0 0 0 0 0 0 0 0
0 0 0 0 0 0 0 0 0 0 0 0 0 0 0 0 0 0 3 3 3 3 0 0 0 0 0 0 0 0 0 0 0 0 0 0 0 0 0 0 0 0 0 0 0 0 0 0 0
0 0 0 0 0 0 0 0 0 0 0 0 0 0 0 0 0 0 3 3 3 3 0 0 0 0 0 0 0 0 0 0 0 0 0 0 0 0 0 0 0 0 0 0 0 0 0 0 0
0 0 0 0 0 0 0 0 0 0 0 0 0 0 0 0 0 0 0 3 3 0 0 0 0 0 0 0 0 0 0 0 0 0 0 0 0 0 0 0 0 0 0 0 0 0 0 0 0
0 0 0 0 0 0 0 0 0 0 0 0 0 0 0 0 0 0 0 3 3 0 0 0 0 0 0 0 0 0 0 0 0 0 0 0 0 0 0 0 0 0 0 0 0 0 0 0 0

GEFSSGP_con_cape1000_300.txt.gz
Probability
42 29 26 26 16 0 0 0 0 0 3 6 0 0 3 0 3 6 10 0 3 3 13 26 35 32 39 39 42 42 42 45 42 42 35 35 39 35 35 35 42 35 35 35 39 42 45 52 48
26 23 19 13 3 0 0 0 0 0 0 0 0 0 3 3 0 0 0 3 3 0 10 16 42 35 32 35 39 48 45 39 39 35 32 32 35 42 29 39 32 39 35 35 35 35 39 45 52
19 16 13 3 0 0 0 0 0 0 0 0 0 0 3 3 0 3 10 10 3 0 19 29 45 39 35 32 35 42 48 42 45 42 35 32 32 29 32 32 32 32 35 35 39 35 32 35 32
13 10 6 3 0 3 0 0 0 0 0 0 0 0 0 0 3 3 16 10 6 3 16 29 45 39 35 42 45 42 48 45 39 35 42 39 29 29 32 32 35 29 29 29 29 29 29 32 32
3 3 3 0 0 0 0 0 0 0 0 0 0 0 0 13 13 10 13 13 13 10 19 26 48 48 45 52 42 55 52 45 42 35 35 32 35 32 32 29 26 26 29 26 26 29 32 35 35
3 0 0 0 0 0 0 0 0 0 0 0 0 0 3 10 13 16 23 16 10 10 13 26 39 35 32 32 32 42 42 35 35 29 26 23 26 29 29 23 26 29 23 26 32 29 29 32 26
3 0 0 0 0 0 0 0 0 0 0 0 0 0 6 10 23 19 13 16 13 6 19 19 26 23 32 35 39 42 35 39 35 26 26 29 29 26 26 26 23 26 23 23 29 29 23 23 26
3 3 0 0 0 0 0 0 0 0 3 0 0 0 0 13 23 19 16 16 16 16 16 19 23 19 26 29 35 42 29 29 26 23 19 19 19 13 16 19 29 29 29 23 16 16 19 23 23
3 3 0 0 0 0 0 3 0 0 6 6 3 0 3 16 19 16 19 16 16 13 19 19 19 16 26 26 16 29 32 29 23 10 10 10 3 3 16 13 19 13 19 16 13 13 16 13 10
6 0 0 0 0 0 0 3 3 3 3 3 6 6 10 23 13 13 13 6 6 3 13 13 16 16 13 6 19 23 16 16 10 10 13 13 6 3 0 6 13 13 13 13 10 6 6 6 3
10 0 6 0 0 3 0 3 3 3 3 3 3 13 13 13 13 10 6 6 3 6 16 13 13 10 10 10 19 23 23 26 10 6 6 13 6 3 3 0 6 6 3 3 6 3 3 3 3
10 6 3 3 3 3 0 3 3 6 6 6 10 13 13 13 13 13 10 10 3 6 13 16 10 10 10 10 10 10 19 26 19 16 6 6 13 10 3 6 3 6 6 10 6 6 3 3 3
6 6 6 3 0 0 0 0 3 6 3 6 10 16 10 13 13 16 13 6 10 10 13 10 6 10 10 6 3 3 10 13 13 16 10 10 10 10 13 6 6 3 3 3 6 3 0 0 0
6 3 3 0 0 0 0 3 3 6 10 10 13 13 6 10 10 16 10 6 6 10 10 3 3 10 6 3 3 3 6 13 13 13 10 13 13 13 10 6 6 6 6 3 0 0 0 0 0
3 3 0 0 0 0 0 3 3 6 13 10 6 10 3 13 13 10 6 10 6 6 6 0 3 3 0 3 3 3 10 13 13 13 13 13 13 10 10 10 6 6 6 3 3 0 0 0 0
0 0 0 0 0 0 0 0 0 6 13 13 6 10 10 13 16 13 10 10 10 10 13 6 0 6 3 3 3 0 3 10 10 13 6 10 10 10 10 10 6 6 3 3 0 0 3 3 0
0 0 0 0 0 0 0 0 0 6 6 6 6 6 6 13 16 13 13 10 10 10 10 6 10 3 3 3 0 3 0 3 3 6 6 3 3 3 6 6 6 3 3 3 0 0 3 0 0
0 0 0 0 0 0 0 0 0 3 3 6 6 10 10 6 10 13 10 10 3 10 10 6 6 10 6 6 3 3 3 0 3 3 3 3 3 3 3 3 3 0 0 0 0 0 3 3 3
0 0 0 0 0 0 0 0 0 3 3 3 3 3 3 3 6 3 6 3 3 6 10 10 10 6 10 10 3 10 0 0 0 0 3 6 3 3 3 3 3 3 0 6 6 3 3 3 3
0 0 0 0 0 0 0 0 0 0 3 3 3 3 6 3 6 3 6 10 3 6 13 10 10 6 6 10 6 6 3 0 0 0 0 0 0 3 3 3 6 10 10 6 6 6 10 6 3
0 0 0 0 0 0 0 0 0 0 0 3 3 3 3 6 6 6 3 6 13 13 16 10 10 6 10 13 10 3 10 0 0 0 0 0 0 0 0 3 3 3 3 10 6 6 6 6 6
0 0 0 0 0 0 0 0 0 0 0 3 3 3 6 6 6 6 6 6 10 16 16 13 6 3 6 6 6 3 10 3 0 0 0 0 0 0 0 0 0 0 3 3 3 3 10 6 6
0 0 0 0 0 0 0 0 0 0 0 0 0 3 6 3 3 6 6 10 10 10 16 13 10 3 3 3 10 10 6 0 0 0 0 0 0 0 0 0 0 0 0 0 3 3 3 3 3
0 0 0 0 0 0 0 0 0 0 0 0 0 0 0 3 3 3 3 3 0 10 16 13 13 6 3 0 0 0 0 6 0 0 0 0 0 0 0 0 0 0 0 0 0 3 3 3 3
0 0 0 0 0 0 0 0 0 0 0 0 0 0 0 3 6 6 3 3 0 6 13 10 10 6 3 0 0 0 0 3 3 0 0 0 0 0 0 0 0 0 0 0 0 3 3 3 3
0 0 0 0 0 0 0 0 0 0 0 0 0 0 0 0 6 6 6 10 3 3 10 10 10 3 0 3 0 0 0 3 3 3 0 0 0 0 0 0 0 0 0 0 0 3 3 3 3
0 0 0 0 0 0 0 0 0 0 0 0 0 0 3 0 6 6 6 6 0 10 10 6 6 0 0 0 3 0 3 3 3 3 0 3 0 0 0 0 0 0 0 0 0 0 3 3 3
0 0 0 0 0 0 0 0 0 0 0 0 3 3 3 3 6 6 6 3 3 6 6 3 6 3 3 3 0 3 3 3 3 3 0 3 0 0 0 0 0 0 0 0 0 0 0 0 3
0 0 0 0 0 0 0 0 0 0 0 0 3 3 3 3 3 6 10 6 6 6 10 3 3 3 0 3 0 3 6 3 3 6 6 3 0 0 0 0 0 0 0 0 0 0 0 0 0
0 0 0 0 0 0 0 0 0 0 3 0 3 3 3 3 6 10 6 6 13 6 3 3 3 3 3 3 6 0 3 3 3 3 3 3 0 0 0 0 0 0 0 0 0 0 0 0 0

GEFSSGP_con_cape1000_306.txt.gz
Probability
61 61 65 97 77 39 3 0 3 6 3 3 0 3 3 6 6 13 19 10 19 26 19 35 39 48 48 42 48 52 48 42 35 39 35 32 32 39 42 35 32 35 35 39 39 48 48 52 48
32 32 48 77 45 3 0 0 6 6 3 3 3 3 3 6 3 6 16 13 16 19 16 19 42 39 45 45 52 48 45 39 35 39 39 35 32 32 35 35 35 39 39 39 42 45 42 45 48
35 19 48 58 10 3 0 6 3 0 3 3 3 3 3 3 6 10 10 13 13 19 19 29 48 42 48 55 55 48 32 32 39 39 29 29 32 29 32 39 35 32 29 35 32 39 35 32 32
29 39 39 19 3 3 0 0 3 0 0 0 3 3 3 6 10 10 10 6 13 16 26 39 52 52 52 48 48 42 39 39 35 26 26 29 29 29 29 29 26 29 29 32 32 29 32 32 29
29 45 16 10 3 3 0 0 0 0 0 0 3 3 10 10 13 16 16 10 16 29 29 23 48 48 45 45 45 39 35 39 32 32 32 26 26 19 19 23 26 32 32 32 35 29 29 26 29
35 26 3 0 0 0 0 3 0 0 0 0 3 6 10 13 10 19 19 16 13 23 26 32 48 42 32 42 35 32 35 39 29 29 26 19 23 23 23 26 19 32 26 32 32 32 32 26 26
32 26 0 0 0 0 3 3 3 0 0 0 0 3 6 13 19 19 16 13 13 23 26 29 23 29 35 45 39 35 35 26 23 19 16 26 26 23 26 26 23 23 23 23 35 32 23 23 26
19 19 3 0 0 3 3 3 3 3 0 0 0 3 13 13 13 13 16 13 13 19 19 23 26 23 26 32 42 39 35 26 26 19 19 23 26 26 26 23 23 19 19 26 26 19 19 26 29
10 13 0 3 0 3 3 3 3 0 0 0 0 3 13 13 13 13 16 16 10 6 16 16 19 26 19 19 29 39 35 39 29 29 35 23 16 6 13 16 26 23 13 26 23 13 13 23 26
10 13 0 3 3 3 0 0 0 0 0 0 3 6 13 10 13 10 13 6 10 13 13 13 16 19 23 13 13 19 6 16 13 10 10 13 6 3 3 10 26 19 23 19 19 16 16 10 3
3 3 0 3 3 0 0 0 0 0 0 0 3 6 13 10 13 10 13 13 13 13 10 10 10 13 23 19 16 19 13 13 6 6 3 3 0 0 0 0 6 13 16 10 6 10 3 3 3
3 3 0 3 0 0 0 3 3 3 6 3 3 6 6 10 10 10 10 10 13 13 6 10 10 10 6 6 10 10 10 10 6 6 3 3 3 0 3 3 10 13 0 0 3 3 3 3 3
3 0 3 0 0 0 3 3 3 3 6 6 3 6 6 10 10 13 10 10 10 13 10 10 13 6 6 3 3 3 3 3 6 6 3 3 6 0 0 3 3 0 0 3 3 0 3 3 3
3 3 3 0 0 0 0 0 3 6 6 6 6 6 6 6 6 6 10 10 10 6 3 10 6 10 6 3 3 3 3 6 6 6 3 3 6 3 3 0 0 0 0 3 3 0 0 0 0
3 0 0 0 0 0 0 0 0 6 3 3 10 10 6 3 6 6 6 10 6 6 6 10 10 6 6 3 6 6 3 3 3 0 0 3 6 6 6 0 0 0 0 0 0 0 0 0 0
0 0 0 0 0 0 0 0 0 3 3 3 10 10 10 10 10 6 6 6 10 6 6 13 6 3 3 3 3 3 3 3 0 3 0 3 6 6 6 0 0 0 0 0 0 0 0 0 0
0 0 0 0 0 0 0 3 3 3 3 3 6 10 10 10 10 6 10 6 6 10 13 10 6 3 3 6 0 0 0 0 0 3 0 0 3 3 0 3 3 0 0 3 0 3 3 3 3
0 0 0 0 0 0 0 0 0 0 0 3 6 6 6 6 6 6 6 10 6 6 10 10 3 3 3 0 3 0 0 0 0 0 0 0 0 0 0 3 0 3 3 3 3 3 3 3 3
0 0 0 0 0 0 0 0 0 0 0 3 3 6 6 6 3 3 6 10 10 10 10 10 6 6 6 3 3 3 0 0 0 0 0 0 0 0 0 0 0 0 3 3 3 3 3 3 3
0 0 0 0 0 0 0 0 0 0 0 3 3 3 6 6 3 3 3 6 10 10 10 10 6 6 6 3 3 3 3 0 0 0 0 0 0 0 0 0 0 3 0 0 0 0 0 0 0
0 0 0 0 0 0 0 0 0 0 0 3 3 3 3 3 3 3 3 6 6 10 6 13 10 10 6 3 3 3 3 0 0 0 0 0 0 0 0 0 0 0 0 3 3 3 3 3 3
0 0 0 0 0 0 0 0 0 0 0 0 0 0 0 3 3 3 3 3 6 10 10 13 10 6 6 0 6 6 3 0 0 0 0 0 0 0 0 0 0 0 0 3 3 3 3 3 3
0 0 0 0 0 0 0 0 0 0 0 0 3 0 0 0 0 3 3 6 6 10 10 13 10 13 6 6 10 10 0 0 0 0 0 0 0 0 0 0 0 0 0 0 3 0 3 3 3
0 0 0 0 0 0 0 0 0 0 0 0 0 3 0 0 0 0 3 6 6 0 10 16 13 16 6 0 3 3 0 0 0 0 0 0 0 0 0 0 0 0 0 0 0 0 3 3 3
0 0 0 0 0 0 0 0 0 0 0 0 0 0 0 0 0 0 0 3 3 3 3 13 13 13 10 6 0 3 3 3 3 0 0 0 0 0 0 0 0 0 0 0 0 0 3 3 3
0 0 0 0 0 0 0 0 0 0 0 0 0 0 0 0 0 0 3 3 3 3 0 10 10 13 10 10 3 0 3 3 3 3 0 0 0 0 0 0 0 0 0 0 0 0 0 3 3
0 0 0 0 0 0 0 0 0 0 0 0 0 0 3 0 3 3 10 6 6 0 0 6 6 6 6 6 3 10 3 3 3 3 3 0 0 0 0 0 0 0 0 0 0 0 0 0 3
0 0 0 0 0 0 0 0 0 0 0 0 0 0 3 3 6 6 10 3 3 3 0 3 3 3 6 6 3 3 6 3 3 3 3 3 0 0 0 0 0 0 0 0 0 0 0 0 0
0 0 0 0 0 0 0 0 0 0 0 0 3 3 3 3 6 6 10 10 6 0 6 6 3 6 6 3 3 6 0 3 3 3 3 3 0 0 0 0 0 0 0 0 0 0 0 0 0
0 0 0 0 0 0 0 0 0 0 0 3 3 3 3 6 6 10 6 13 10 10 6 6 6 6 3 3 3 3 3 3 3 3 3 3 3 0 0 0 0 0 0 0 0 0 0 0 0